Flag for Greenland Weather past 2 weeks in Nuuk, Greenland

Now
10 °F

Snow flurries. Partly sunny.


Feels Like: -2 °F
Forecast: 10 / 16 °F
Wind: 8 mph from Southwest

Location: Godthaab / Nuuk

Current Time: Mar 28, 2015 at 7:18:16 AM

Latest Report: Mar 28, 2015 at 6:50 AM


Visibility: 5 mi

Pressure: 29.33 "Hg

Humidity: 79%

Dew point: 5 °F

Location of NuukLocation

Historic Weather in Nuuk — Graph

°F

Nuuk temperature yesterday

Maximum temperature yesterday: 16 °F (at 10:50 AM)
Minimum temperature yesterday: 10 °F (at 12:50 AM)
Average temperature yesterday: 13 °F

Past Weeks' High & Low Weather Summary

 TemperatureHumidityPressure
High41 °F (Mar 23, 9:50 PM)100% (Mar 19, 8:50 AM)30.15 "Hg (Mar 19, 8:50 AM)
Low3 °F (Mar 13, 5:50 AM)33% (Mar 18, 5:50 AM)28.68 "Hg (Mar 13, 5:50 PM)
Average18 °F75%29.48 "Hg
* Reported Mar 13 5:50 AM — Mar 28 5:50 AM, Nuuk, Weather by CustomWeather, © 2015

Note: Actual official high and low records may vary slightly from our data, if they occured in-between our weather recording intervals... More about our weather records

Advertising

Nuuk weather history for previous 24 hours

 ConditionsComfort  
Time TempWeatherWind HumidityBarometerVisibility
5:50 AM
Sat, Mar 28
10 °FSnow flurries. Passing clouds.12 mph79%29.36 "Hg4 mi
4:50 AM10 °FSnow flurries. Overcast.12 mph79%29.36 "HgN/A
3:50 AM12 °FLight snow. Passing clouds.13 mph79%29.33 "Hg4 mi
2:50 AM12 °FLight snow. Ice fog.15 mph79%29.36 "Hg2 mi
1:50 AM12 °FPassing clouds.12 mph73%29.33 "HgN/A
12:50 AM12 °FLight snow. Overcast.3 mph79%29.36 "Hg1 mi
11:50 PM
Fri, Mar 27
12 °FLight snow. Mostly cloudy.3 mph85%29.36 "Hg1 mi
10:50 PM12 °FSnow. Overcast.6 mph85%29.36 "Hg1 mi
9:50 PM12 °FSnow showers. Ice fog.5 mph85%29.39 "Hg1 mi
8:50 PM12 °FSnow showers. Mostly cloudy.5 mph85%29.39 "Hg1 mi
7:50 PM12 °FSnow showers. Mostly cloudy.6 mph85%29.39 "Hg1 mi
6:50 PM12 °FSnow showers. Ice fog.8 mph85%29.39 "Hg1 mi
5:50 PM14 °FSnow flurries. Broken clouds.10 mph67%29.39 "Hg1 mi
4:50 PM14 °FSnow. Partly sunny.8 mph67%29.39 "HgN/A
3:50 PM14 °FSnow flurries. Broken clouds.9 mph67%29.39 "Hg2 mi
2:50 PM16 °FSnow flurries. Broken clouds.10 mph67%29.39 "Hg2 mi
1:50 PM14 °FSnow flurries. Partly sunny.12 mph73%29.42 "HgN/A
12:50 PM16 °FScattered showers. Broken clouds.12 mph57%29.42 "HgN/A
11:50 AM16 °FScattered showers. Broken clouds.6 mph57%29.42 "HgN/A
10:50 AM16 °FPartly sunny.5 mph62%29.42 "HgN/A
9:50 AM14 °FScattered clouds.8 mph57%29.42 "HgN/A
8:50 AM14 °FScattered clouds.6 mph57%29.42 "HgN/A
7:50 AM12 °FPassing clouds.9 mph62%29.42 "HgN/A
Weather by CustomWeather, © 2015

See weather overviewHow to use our weather pages